�������l�o���
Date,Time,MP-1(��Sv/h),MP-2(��Sv/h),MP-3(��Sv/h),MP-4(��Sv/h),MP-5(��Sv/h),MP-6(��Sv/h),MP-7(��Sv/h),����,����(m/s),���J
2014/03/15,00:00,0.7,0.5,0.8,0.7,0.7,0.3,0.3,�k,4.6,��
2014/03/15,00:10,0.7,0.5,0.8,0.7,0.7,0.3,0.3,�k,5.6,��
2014/03/15,00:20,0.7,0.5,0.8,0.7,0.7,0.3,0.3,�k,5.9,��
2014/03/15,00:30,0.7,0.5,0.8,0.7,0.7,0.3,0.3,�k,6.5,��
2014/03/15,00:40,0.7,0.5,0.8,0.7,0.7,0.3,0.3,�k,6.0,��
2014/03/15,00:50,0.7,0.5,0.8,0.7,0.7,0.3,0.3,�k,4.3,��
2014/03/15,01:00,0.7,0.5,0.8,0.7,0.7,0.3,0.3,�k,5.9,��
2014/03/15,01:10,0.7,0.5,0.8,0.7,0.7,0.3,0.3,�k,6.7,��
2014/03/15,01:20,0.7,0.5,0.8,0.7,0.7,0.3,0.3,�k,6.4,��
2014/03/15,01:30,0.7,0.5,0.8,0.7,0.7,0.3,0.3,�k,7.9,��
2014/03/15,01:40,0.7,0.5,0.8,0.7,0.7,0.3,0.3,�k,6.2,��
2014/03/15,01:50,0.7,0.5,0.8,0.7,0.7,0.3,0.3,�k,4.6,��
2014/03/15,02:00,0.7,0.5,0.8,0.7,0.7,0.3,0.3,�k,2.7,��
2014/03/15,02:10,0.7,0.5,0.8,0.7,0.7,0.3,0.3,�k�k��,2.5,��
2014/03/15,02:20,0.7,0.5,0.8,0.7,0.7,0.3,0.3,�k,2.9,��
2014/03/15,02:30,0.7,0.5,0.8,0.7,0.7,0.3,0.3,�k,3.3,��
2014/03/15,02:40,0.7,0.5,0.8,0.7,0.7,0.3,0.3,�k,1.4,��
2014/03/15,02:50,0.7,0.5,0.8,0.7,0.7,0.3,0.3,�k,1.5,��
2014/03/15,03:00,0.7,0.5,0.8,0.7,0.7,0.3,0.3,�k�k��,2.0,��
2014/03/15,03:10,0.7,0.5,0.8,0.7,0.7,0.3,0.3,�k�k��,3.9,��
2014/03/15,03:20,0.7,0.5,0.8,0.7,0.7,0.3,0.3,�k�k��,4.5,��
2014/03/15,03:30,0.7,0.5,0.8,0.7,0.7,0.3,0.3,�k�k��,3.0,��
2014/03/15,03:40,0.7,0.5,0.8,0.7,0.7,0.3,0.3,�k�k��,2.7,��
2014/03/15,03:50,0.7,0.5,0.8,0.7,0.7,0.3,0.3,�k,1.8,��
2014/03/15,04:00,0.7,0.5,0.8,0.7,0.7,0.3,0.3,�k��,1.4,��
2014/03/15,04:10,0.7,0.5,0.8,0.7,0.7,0.3,0.3,�k�k��,2.8,��
2014/03/15,04:20,0.7,0.5,0.8,0.7,0.7,0.3,0.3,�k�k��,5.3,��
2014/03/15,04:30,0.7,0.5,0.8,0.7,0.7,0.3,0.3,�k,5.6,��
2014/03/15,04:40,0.7,0.5,0.8,0.7,0.7,0.3,0.3,�k�k��,6.1,��
2014/03/15,04:50,0.7,0.5,0.8,0.7,0.7,0.3,0.3,�k�k��,5.6,��
2014/03/15,05:00,0.7,0.5,0.8,0.7,0.7,0.3,0.3,�k�k��,4.8,��
2014/03/15,05:10,0.7,0.5,0.8,0.7,0.7,0.3,0.3,�k��,4.5,��
2014/03/15,05:20,0.7,0.5,0.8,0.7,0.7,0.3,0.3,�k��,4.8,��
2014/03/15,05:30,0.7,0.5,0.8,0.7,0.7,0.3,0.3,�k��,4.5,��
2014/03/15,05:40,0.7,0.5,0.8,0.7,0.7,0.3,0.3,�k��,4.5,��
2014/03/15,05:50,0.7,0.5,0.8,0.7,0.7,0.3,0.3,���k��,4.6,��
2014/03/15,06:00,0.7,0.5,0.8,0.7,0.7,0.3,0.3,�k��,5.5,��
2014/03/15,06:10,0.7,0.5,0.8,0.7,0.7,0.3,0.3,�k��,4.1,��
2014/03/15,06:20,0.7,0.5,0.8,0.7,0.7,0.3,0.3,�k��,6.5,��
2014/03/15,06:30,0.7,0.5,0.8,0.7,0.7,0.3,0.3,�k��,6.7,��
2014/03/15,06:40,0.7,0.5,0.8,0.7,0.7,0.3,0.3,�k�k��,5.9,��
2014/03/15,06:50,0.7,0.5,0.8,0.7,0.7,0.3,0.3,�k�k��,6.2,��
2014/03/15,07:00,0.7,0.5,0.8,0.7,0.7,0.3,0.3,�k,4.5,��
2014/03/15,07:10,0.7,0.5,0.8,0.7,0.7,0.3,0.3,�k�k��,3.7,��
2014/03/15,07:20,0.7,0.5,0.8,0.7,0.7,0.3,0.3,�k�k��,4.1,��
2014/03/15,07:30,0.7,0.5,0.8,0.7,0.7,0.3,0.3,�k�k��,2.3,��
2014/03/15,07:40,0.7,0.5,0.8,0.7,0.7,0.3,0.3,�k��,1.9,��
2014/03/15,07:50,0.7,0.5,0.8,0.7,0.7,0.3,0.3,�k��,1.4,��
2014/03/15,08:00,0.7,0.5,0.8,0.7,0.7,0.3,0.3,�k��,1.7,��
2014/03/15,08:10,0.7,0.5,0.8,0.7,0.7,0.3,0.3,�k��,0.6,��
2014/03/15,08:20,0.7,0.5,0.8,0.7,0.7,0.3,0.3,�k,1.6,��
2014/03/15,08:30,0.7,0.5,0.8,0.7,0.7,0.3,0.3,�k,0.9,��
2014/03/15,08:40,0.7,0.5,0.8,0.7,0.7,0.3,0.3,�k��,1.7,��
2014/03/15,08:50,0.7,0.5,0.8,0.7,0.7,0.3,0.3,��,1.4,��
2014/03/15,09:00,0.7,0.5,0.8,0.7,0.7,0.3,0.3,���쓌,1.9,��
2014/03/15,09:10,0.7,0.5,0.8,0.7,0.7,0.3,0.3,-,CALM,��
2014/03/15,09:20,0.7,0.5,0.8,0.7,0.7,0.3,0.3,���k��,2.8,��
2014/03/15,09:30,0.7,0.5,0.8,0.7,0.7,0.3,0.3,���k��,3.3,��
2014/03/15,09:40,0.7,0.5,0.8,0.7,0.7,0.3,0.3,���k��,1.9,��
2014/03/15,09:50,0.7,0.5,0.8,0.7,0.7,0.3,0.3,���쓌,3.7,��
2014/03/15,10:00,0.7,0.5,0.8,0.7,0.7,0.3,0.3,��,3.7,��
2014/03/15,10:10,0.7,0.5,0.8,0.7,0.7,0.3,0.3,��,2.5,��
2014/03/15,10:20,0.7,0.5,0.8,0.7,0.7,0.3,0.3,��,2.2,��
2014/03/15,10:30,0.7,0.5,0.8,0.7,0.7,0.3,0.3,���k��,2.2,��
2014/03/15,10:40,0.7,0.5,0.8,0.7,0.7,0.3,0.3,��,1.9,��
2014/03/15,10:50,0.7,0.5,0.8,0.7,0.7,0.3,0.3,��,2.4,��
2014/03/15,11:00,0.7,0.5,0.8,0.7,0.7,0.3,0.3,�쓌,2.5,��
2014/03/15,11:10,0.7,0.5,0.8,0.7,0.7,0.3,0.3,���쓌,2.8,��
2014/03/15,11:20,0.7,0.5,0.8,0.7,0.7,0.3,0.3,�쓌,2.9,��
2014/03/15,11:30,0.7,0.5,0.8,0.7,0.7,0.3,0.3,���쓌,3.1,��
2014/03/15,11:40,0.7,0.5,0.8,0.7,0.7,0.3,0.3,��,2.7,��
2014/03/15,11:50,0.7,0.5,0.8,0.7,0.7,0.3,0.3,���쓌,3.6,��
2014/03/15,12:00,0.7,0.5,0.8,0.7,0.7,0.3,0.3,���쓌,3.5,��
2014/03/15,12:10,0.7,0.5,0.8,0.7,0.7,0.3,0.3,���쓌,4.1,��
2014/03/15,12:20,0.7,0.5,0.8,0.7,0.7,0.3,0.3,�쓌,2.2,��
2014/03/15,12:30,0.7,0.5,0.8,0.7,0.7,0.3,0.3,��,2.0,��
2014/03/15,12:40,0.7,0.5,0.8,0.7,0.7,0.3,0.3,��,1.9,��
2014/03/15,12:50,0.7,0.5,0.8,0.7,0.7,0.3,0.3,���쓌,1.3,��
2014/03/15,13:00,0.7,0.5,0.8,0.7,0.7,0.3,0.3,���쓌,4.0,��
2014/03/15,13:10,0.7,0.5,0.8,0.7,0.7,0.3,0.3,��,3.1,��
2014/03/15,13:20,0.7,0.5,0.8,0.7,0.7,0.3,0.3,���쐼,0.8,��
2014/03/15,13:30,0.7,0.5,0.8,0.7,0.7,0.3,0.3,��쓌,1.1,��
2014/03/15,13:40,0.7,0.5,0.8,0.7,0.7,0.3,0.3,���k��,5.7,��
2014/03/15,13:50,0.7,0.5,0.8,0.7,0.7,0.3,0.3,�k��,7.3,��
2014/03/15,14:00,0.7,0.5,0.8,0.7,0.7,0.3,0.3,���k��,8.9,��
2014/03/15,14:10,0.7,0.5,0.8,0.7,0.7,0.3,0.3,���k��,10.2,��
2014/03/15,14:20,0.7,0.5,0.8,0.7,0.7,0.3,0.3,���k��,7.4,��
2014/03/15,14:30,0.7,0.5,0.8,0.7,0.7,0.3,0.3,��,6.4,��
2014/03/15,14:40,0.7,0.5,0.8,0.7,0.7,0.3,0.3,���k��,7.4,��
2014/03/15,14:50,0.7,0.5,0.8,0.7,0.7,0.3,0.3,���k��,8.6,��
2014/03/15,15:00,0.7,0.5,0.8,0.7,0.7,0.3,0.3,�k��,6.4,��
2014/03/15,15:10,0.7,0.5,0.8,0.7,0.7,0.3,0.3,���k��,7.1,��
2014/03/15,15:20,0.7,0.5,0.8,0.7,0.7,0.3,0.3,��,6.6,��
2014/03/15,15:30,0.7,0.5,0.8,0.7,0.7,0.3,0.3,��,7.1,��
2014/03/15,15:40,0.7,0.5,0.8,0.7,0.7,0.3,0.3,���k��,7.1,��
2014/03/15,15:50,0.7,0.5,0.8,0.7,0.7,0.3,0.3,��,5.6,��
2014/03/15,16:00,0.7,0.5,0.8,0.7,0.7,0.3,0.3,���k��,6.2,��
2014/03/15,16:10,0.7,0.5,0.8,0.7,0.7,0.3,0.3,���k��,5.1,��
2014/03/15,16:20,0.7,0.5,0.8,0.7,0.7,0.3,0.3,��,4.1,��
2014/03/15,16:30,0.7,0.5,0.8,0.7,0.7,0.3,0.3,���k��,2.2,��
2014/03/15,16:40,0.7,0.5,0.8,0.7,0.7,0.3,0.3,���쐼,1.8,��
2014/03/15,16:50,0.7,0.5,0.8,0.7,0.7,0.3,0.3,��,2.7,��
2014/03/15,17:00,0.7,0.5,0.8,0.7,0.7,0.3,0.3,��,4.1,��
2014/03/15,17:10,0.7,0.5,0.8,0.7,0.7,0.3,0.3,��쐼,4.2,��
2014/03/15,17:20,0.7,0.5,0.8,0.7,0.7,0.3,0.3,��,3.1,��
2014/03/15,17:30,0.7,0.5,0.8,0.7,0.7,0.3,0.3,��,3.1,��
2014/03/15,17:40,0.7,0.5,0.8,0.7,0.7,0.3,0.3,��,3.6,��
2014/03/15,17:50,0.7,0.5,0.8,0.7,0.7,0.3,0.3,��,3.4,��
2014/03/15,18:00,0.7,0.5,0.8,0.7,0.7,0.3,0.3,��쐼,2.5,��
2014/03/15,18:10,0.7,0.5,0.8,0.7,0.7,0.3,0.3,��쐼,1.9,��
2014/03/15,18:20,0.7,0.5,0.8,0.7,0.7,0.3,0.3,��쐼,1.7,��
2014/03/15,18:30,0.7,0.5,0.8,0.7,0.7,0.3,0.3,���k��,0.8,��
2014/03/15,18:40,0.7,0.5,0.8,0.7,0.7,0.3,0.3,�k�k��,1.1,��
2014/03/15,18:50,0.7,0.5,0.8,0.7,0.7,0.3,0.3,�k�k��,2.0,��
2014/03/15,19:00,0.7,0.5,0.8,0.7,0.7,0.3,0.3,�k�k��,1.3,��
2014/03/15,19:10,0.7,0.5,0.8,0.7,0.7,0.3,0.3,�k�k��,2.1,��
2014/03/15,19:20,0.7,0.5,0.8,0.7,0.7,0.3,0.3,�k,1.7,��
2014/03/15,19:30,0.7,0.5,0.8,0.7,0.7,0.3,0.3,���k��,1.2,��
2014/03/15,19:40,0.7,0.5,0.8,0.7,0.7,0.3,0.3,���쐼,0.6,��
2014/03/15,19:50,0.7,0.5,0.8,0.7,0.7,0.3,0.3,��,0.9,��
2014/03/15,20:00,0.7,0.5,0.8,0.7,0.7,0.3,0.3,��,1.2,��
2014/03/15,20:10,0.7,0.5,0.8,0.7,0.7,0.3,0.3,�k�k��,1.1,��
2014/03/15,20:20,0.7,0.5,0.8,0.7,0.7,0.3,0.3,���k��,2.0,��
2014/03/15,20:30,0.7,0.5,0.8,0.7,0.7,0.3,0.3,��,2.5,��
2014/03/15,20:40,0.7,0.5,0.8,0.7,0.7,0.3,0.3,��,4.4,��
2014/03/15,20:50,0.7,0.5,0.8,0.7,0.7,0.3,0.3,��,6.1,��
2014/03/15,21:00,0.7,0.5,0.8,0.7,0.7,0.3,0.3,��,6.1,��
2014/03/15,21:10,0.7,0.5,0.8,0.7,0.7,0.3,0.3,��,5.8,��
2014/03/15,21:20,0.7,0.5,0.8,0.7,0.7,0.3,0.3,��,6.4,��
2014/03/15,21:30,0.7,0.5,0.8,0.7,0.7,0.3,0.3,��,6.0,��
2014/03/15,21:40,0.7,0.5,0.8,0.7,0.7,0.3,0.3,��,5.7,��
2014/03/15,21:50,0.7,0.5,0.8,0.7,0.7,0.3,0.3,��,5.6,��
2014/03/15,22:00,0.7,0.5,0.8,0.7,0.7,0.3,0.3,��,5.0,��
2014/03/15,22:10,0.7,0.5,0.8,0.7,0.7,0.3,0.3,��,3.9,��
2014/03/15,22:20,0.7,0.5,0.8,0.7,0.7,0.3,0.3,���쐼,2.9,��
2014/03/15,22:30,0.7,0.5,0.8,0.7,0.7,0.3,0.3,��,2.8,��
2014/03/15,22:40,0.7,0.5,0.8,0.7,0.7,0.3,0.3,��,3.2,��
2014/03/15,22:50,0.7,0.5,0.8,0.7,0.7,0.3,0.3,��,3.9,��
2014/03/15,23:00,0.7,0.5,0.8,0.7,0.7,0.3,0.3,��,3.5,��
2014/03/15,23:10,0.7,0.5,0.8,0.7,0.7,0.3,0.3,��,2.8,��
2014/03/15,23:20,0.7,0.5,0.8,0.7,0.7,0.3,0.3,���쐼,2.0,��
2014/03/15,23:30,0.7,0.5,0.8,0.7,0.7,0.3,0.3,�쐼,1.1,��
2014/03/15,23:40,0.7,0.5,0.8,0.7,0.7,0.3,0.3,��쓌,0.7,��
2014/03/15,23:50,0.7,0.5,0.8,0.7,0.7,0.3,0.3,�쓌,1.4,��
